CAPE
0 0 19 0 0 2 15 15 0 0 0 0 0 0 0 0 0 0 2 1 0 0 0 3 16 52 11 0 0 0 0 24 5 2 2 4 4 0 0 40 0 0 0 0 1
0 0 0 16 0 0 3 14 19 0 0 0 0 0 0 0 0 0 0 0 0 0 0 14 55 61 13 0 0 0 11 13 0 0 0 0 0 0 12 25 0 9 0 0 4
6 0 0 0 9 0 0 2 18 15 0 0 0 0 0 0 0 0 0 0 0 0 0 0 49 49 9 0 0 0 24 0 0 0 0 0 0 0 0 0 0 0 41 0 0
1 0 0 0 3 19 0 0 2 13 11 0 0 0 0 10 0 0 0 0 0 0 0 0 46 49 5 1 0 0 0 0 0 0 0 0 0 0 0 0 0 0 67 1 0
5 7 0 0 0 30 29 0 0 2 21 0 0 0 7 19 21 0 0 0 0 0 0 0 11 43 34 17 15 0 0 0 0 0 0 0 0 0 0 0 0 30 55 8 0
2 8 0 0 0 11 36 12 0 0 22 28 0 0 20 6 7 5 0 0 0 0 0 2 3 12 58 66 42 5 0 0 0 0 0 0 0 0 0 0 18 50 84 64 30
0 8 0 0 0 18 39 20 15 0 11 52 0 29 22 4 7 34 9 0 0 0 1 0 3 30 30 43 7 6 6 3 0 0 0 0 0 0 0 0 23 52 90 112 70
0 0 0 0 2 11 32 54 15 0 18 40 24 47 0 5 16 7 22 23 0 0 0 0 0 16 13 0 3 36 14 3 4 0 0 0 0 0 0 0 0 56 90 128 138
4 0 0 0 0 0 13 75 6 27 109 37 32 48 0 12 0 16 23 19 8 0 0 0 0 11 2 19 16 0 1 0 3 2 0 0 0 2 0 0 0 40 109 133 157
6 2 0 0 0 0 14 15 28 87 51 35 56 20 0 1 14 27 57 29 40 17 1 3 3 8 19 38 8 1 2 0 7 1 0 2 0 0 0 0 2 21 125 175 153
0 0 0 0 0 5 4 7 48 28 46 23 11 0 33 27 0 32 66 32 74 16 36 30 5 8 11 22 17 20 0 2 11 0 0 0 0 0 0 0 0 26 98 182 181
0 0 0 9 21 39 10 9 33 113 2 24 43 17 21 38 24 25 46 29 42 1 12 14 5 7 26 31 14 10 9 7 0 0 0 0 0 0 0 0 0 0 74 187 231
0 0 0 40 39 0 0 2 156 148 37 11 7 31 26 14 30 26 7 31 13 15 49 34 4 13 5 10 24 12 7 4 1 0 0 0 0 0 0 0 0 0 0 180 286
0 0 4 11 0 1 0 0 97 146 5 1 0 0 26 56 1 6 21 17 34 6 40 27 2 0 10 1 12 5 0 0 3 1 2 0 0 0 2 0 0 0 0 117 56
0 0 12 0 1 0 0 18 211 87 1 0 3 32 40 27 19 10 46 36 7 9 13 8 0 2 18 4 1 1 14 8 15 7 0 1 3 0 0 3 0 0 0 0 0
0 2 0 1 34 8 155 230 99 7 0 0 8 0 2 9 26 24 24 26 33 14 0 3 0 0 0 9 15 16 15 2 3 5 1 0 0 1 0 0 0 0 0 0 0
0 0 2 19 40 32 102 115 4 0 0 0 4 6 5 3 3 12 15 16 13 0 1 0 0 3 4 3 63 39 15 0 0 0 0 0 1 0 0 0 0 0 0 0 0
0 0 0 2 8 4 27 4 0 0 0 0 0 1 6 11 0 0 13 9 1 2 2 1 1 15 24 4 5 10 3 1 0 0 0 0 0 0 0 0 0 0 0 0 0
0 0 0 0 0 8 11 0 0 0 0 0 0 0 0 9 20 3 2 5 5 0 0 4 3 0 1 14 15 3 1 0 0 0 0 0 0 0 0 0 0 0 0 0 0
0 0 0 0 2 2 0 2 0 0 0 0 0 0 0 0 4 8 1 0 7 0 2 2 1 0 0 3 1 1 0 3 0 0 0 0 0 0 0 0 0 0 0 0 0
0 2 0 0 0 0 1 0 0 1 1 0 1 1 0 2 1 0 1 1 6 5 15 5 1 1 1 2 3 7 2 0 0 0 0 0 0 0 0 0 0 0 0 1 2
0 0 0 0 0 0 0 0 1 1 0 0 1 3 1 0 0 1 0 0 3 7 7 2 1 0 0 0 0 0 3 0 0 0 0 0 0 0 0 0 0 0 1 2 1
0 0 0 0 2 0 1 0 2 1 0 0 0 0 1 0 1 0 0 1 0 5 1 1 1 1 0 0 1 1 0 0 5 0 0 0 0 0 0 0 0 0 1 1 2
0 0 0 0 0 0 0 0 0 0 0 1 1 2 0 0 1 1 3 2 0 1 0 0 1 0 0 0 0 0 0 0 1 0 0 0 0 0 0 0 0 1 2 0 1
0 0 0 0 0 0 0 0 0 0 0 0 0 0 1 0 1 1 3 0 1 5 1 1 0 0 0 0 2 2 0 0 1 0 0 0 0 0 0 0 0 1 1 2 1
0 0 0 0 0 0 0 0 0 0 0 0 1 1 1 0 0 1 1 0 0 0 2 3 1 0 0 0 0 0 2 2 3 0 3 0 0 0 0 0 0 0 1 0 0
0 0 0 0 0 0 0 0 0 0 0 0 0 0 1 1 1 0 0 0 1 2 0 0 0 0 0 0 0 0 0 0 0 0 0 0 0 0 0 0 0 0 0 0 0
CIN
-0 -0 -0 -0 -0 -2 -0 -0 -0 -0 -0 -0 -0 -0 -0 -0 -0 -0 -2 -0 -0 -0 -0 -92 -139 -101 -72 -0 -28 -0 -5 -4 -9 -23 -42 -127 -66 -0 -0 -37 -0 -0 -0 -0 -0
-0 -0 -0 -5 -0 -0 -0 -1 -0 -0 -0 -0 -0 -0 -0 -0 -0 -0 -0 -0 -0 -0 -0 -43 -56 -69 -23 -0 -0 -0 -39 -7 -0 -0 -0 -0 -0 -0 -47 -32 -0 -35 -0 -0 -0
-0 -0 -0 -0 -1 -0 -0 -0 -2 -1 -0 -0 -0 -0 -0 -6 -0 -0 -0 -0 -0 -0 -0 -0 -67 -35 -14 -2 -0 -0 -30 -0 -0 -0 -0 -0 -0 -0 -0 -0 -0 -0 -101 -0 -0
-0 -0 -0 -0 -0 -0 -0 -0 -0 -1 -7 -0 -0 -0 -0 -3 -0 -0 -0 -0 -0 -0 -0 -0 -33 -19 -16 -1 -2 -0 -0 -0 -0 -0 -0 -0 -0 -0 -0 -0 -0 -0 -96 -0 -0
-5 -1 -0 -0 -0 -3 -0 -0 -0 -2 -5 -0 -0 -0 -8 -0 -1 -0 -0 -0 -0 -0 -0 -2 -25 -18 -19 -8 -5 -0 -0 -0 -0 -0 -0 -0 -0 -0 -0 -0 -0 -97 -156 -69 -0
-0 -5 -0 -0 -0 -0 -0 -4 -0 -0 -4 -5 -0 -0 -2 -0 -21 -6 -0 -0 -0 -0 -0 -13 -13 -9 -6 -1 -4 -1 -0 -0 -0 -0 -0 -0 -0 -0 -0 -0 -117 -129 -121 -132 -127
-0 -3 -0 -0 -0 -0 -0 -1 -12 -0 -13 -0 -0 -5 -0 -1 -14 -5 -47 -0 -0 -0 -0 -0 -10 -7 -5 -4 -68 -72 -29 -44 -0 -0 -0 -0 -0 -0 -0 -0 -90 -96 -88 -93 -110
-0 -0 -0 -0 -2 -13 -6 -0 -9 -0 -16 -12 -19 -0 -0 -28 -17 -16 -7 -42 -0 -2 -0 -0 -0 -10 -4 -0 -79 -36 -47 -29 -19 -0 -0 -0 -0 -0 -0 -0 -0 -50 -64 -66 -64
-14 -0 -0 -0 -0 -0 -13 -1 -15 -13 -3 -22 -6 -0 -0 -15 -0 -7 -7 -19 -53 -27 -0 -0 -0 -2 -26 -4 -4 -0 -2 -0 -14 -1 -0 -0 -0 -0 -0 -0 -7 -44 -34 -63 -40
-17 -8 -0 -0 -0 -0 -19 -23 -14 -7 -14 -8 -1 -0 -0 -0 -0 -10 -8 -6 -10 -3 -0 -0 -7 -1 -4 -0 -0 -0 -0 -0 -0 -0 -0 -0 -0 -0 -0 -0 -12 -45 -28 -36 -39
-0 -0 -0 -0 -0 -11 -23 -6 -0 -0 -0 -2 -1 -0 -1 -1 -0 -1 -3 -2 -0 -1 -1 -0 -0 -0 -0 -2 -4 -1 -3 -0 -4 -0 -0 -0 -0 -0 -0 -0 -0 -35 -27 -24 -26
-0 -0 -0 -19 -11 -6 -15 -0 -2 -0 -0 -13 -6 -4 -15 -1 -1 -0 -11 -0 -0 -1 -0 -0 -3 -1 -4 -2 -1 -2 -2 -0 -0 -0 -0 -0 -0 -0 -0 -0 -0 -0 -10 -10 -11
-0 -0 -0 -0 -8 -0 -0 -0 -4 -3 -1 -1 -4 -1 -3 -2 -0 -0 -4 -0 -0 -10 -2 -0 -0 -0 -4 -1 -0 -2 -2 -2 -0 -0 -0 -1 -0 -0 -0 -0 -0 -0 -0 -11 -2
-0 -0 -6 -11 -0 -0 -0 -0 -18 -4 -1 -1 -0 -0 -6 -0 -1 -4 -5 -1 -1 -0 -3 -1 -7 -0 -1 -2 -0 -1 -2 -0 -0 -0 -0 -1 -0 -0 -97 -0 -0 -0 -0 -23 -73
-0 -0 -4 -0 -1 -0 -1 -46 -6 -18 -1 -0 -0 -12 -0 -0 -1 -7 -15 -1 -1 -1 -3 -0 -0 -1 -0 -0 -1 -0 -1 -2 -0 -0 -1 -0 -0 -0 -6 -9 -0 -0 -0 -0 -0
-0 -3 -0 -1 -1 -3 -0 -5 -18 -3 -0 -0 -1 -0 -0 -0 -0 -0 -2 -8 -12 -2 -0 -2 -0 -0 -0 -2 -1 -2 -2 -5 -0 -0 -0 -0 -0 -0 -0 -0 -9 -0 -0 -0 -0
-0 -0 -1 -4 -4 -13 -12 -7 -2 -0 -0 -0 -1 -1 -1 -1 -1 -3 -0 -5 -0 -0 -0 -0 -0 -2 -10 -4 -5 -1 -5 -0 -3 -0 -0 -0 -0 -0 -0 -0 -0 -0 -0 -0 -0
-0 -0 -0 -1 -20 -47 -20 -0 -0 -0 -0 -0 -0 -7 -1 -1 -0 -1 -1 -3 -1 -7 -0 -1 -0 -0 -7 -1 -1 -0 -1 -2 -0 -0 -0 -0 -0 -0 -0 -0 -0 -0 -0 -0 -0
-0 -0 -0 -0 -0 -14 -1 -0 -0 -0 -0 -0 -2 -0 -1 -1 -0 -1 -0 -3 -0 -0 -0 -1 -0 -1 -0 -14 -4 -0 -0 -0 -0 -0 -0 -0 -0 -0 -0 -0 -0 -0 -0 -0 -0
-0 -0 -0 -0 -20 -7 -0 -0 -0 -0 -0 -2 -0 -0 -0 -0 -0 -0 -1 -0 -0 -0 -0 -0 -1 -0 -0 -3 -1 -0 -0 -4 -0 -2 -0 -0 -0 -0 -0 -0 -0 -0 -0 -0 -0
-0 -1 -0 -0 -2 -0 -0 -0 -0 -0 -0 -1 -3 -2 -0 -0 -5 -0 -1 -0 -0 -4 -0 -0 -0 -0 -0 -1 -0 -1 -5 -0 -0 -8 -3 -0 -0 -0 -0 -0 -0 -0 -0 -0 -0
-0 -0 -0 -0 -0 -0 -0 -0 -0 -0 -0 -0 -0 -6 -0 -0 -0 -1 -0 -1 -4 -8 -0 -0 -0 -0 -0 -0 -0 -0 -0 -0 -0 -0 -0 -0 -0 -0 -0 -0 -0 -0 -0 -0 -0
-0 -0 -0 -0 -0 -0 -0 -0 -0 -0 -0 -0 -0 -0 -0 -0 -0 -0 -0 -0 -2 -0 -0 -5 -0 -0 -0 -0 -0 -0 -0 -0 -5 -0 -0 -0 -0 -0 -0 -0 -0 -0 -0 -0 -0
-0 -0 -0 -0 -0 -0 -0 -0 -0 -0 -0 -0 -0 -0 -0 -0 -0 -0 -0 -0 -0 -1 -1 -0 -0 -0 -4 -0 -0 -0 -0 -0 -0 -0 -0 -0 -0 -0 -0 -0 -0 -0 -0 -0 -0
-0 -0 -0 -0 -0 -0 -0 -0 -0 -0 -0 -0 -0 -0 -0 -0 -0 -0 -1 -0 -0 -0 -0 -0 -0 -0 -0 -0 -0 -0 -0 -0 -0 -0 -0 -0 -0 -0 -0 -0 -0 -0 -0 -0 -0
-0 -0 -0 -0 -0 -0 -0 -0 -0 -0 -0 -0 -0 -0 -0 -0 -0 -0 -0 -0 -0 -0 -0 -0 -0 -0 -0 -0 -0 -0 -0 -0 -0 -0 -0 -0 -0 -0 -0 -0 -0 -0 -0 -0 -0
-0 -0 -0 -0 -0 -0 -0 -0 -0 -0 -0 -0 -0 -1 -0 -0 -0 -0 -0 -0 -1 -2 -0 -0 -0 -0 -0 -0 -0 -0 -0 -0 -0 -0 -0 -0 -0 -0 -0 -0 -0 -0 -0 -0 -0
Wind_Speed
17 17 19 20 21 25 25 25 25 26 27 29 29 29 28 28 28 25 29 25 25 23 28 30 27 26 28 26 23 22 26 26 20 21 15 13 15 15 16 14 15 13 13 10 5
16 17 17 17 20 23 26 24 25 26 26 29 30 31 30 28 28 31 24 24 26 25 23 31 35 29 30 29 23 25 26 23 18 17 16 15 17 15 16 14 15 13 10 4 4
15 17 18 16 18 24 26 26 25 26 27 28 29 30 30 28 30 30 27 26 24 25 23 25 30 33 34 27 29 25 28 20 20 18 17 17 16 16 17 16 15 15 8 3 1
17 15 16 16 19 26 27 27 27 27 27 27 29 29 30 29 36 24 26 27 24 22 22 23 30 33 37 40 29 32 28 24 21 20 20 19 19 18 18 15 15 16 6 2 1
16 13 14 14 18 25 27 26 27 28 27 27 28 28 29 34 34 23 25 24 25 22 24 24 26 36 42 39 36 33 31 26 24 22 22 22 21 20 20 18 17 12 8 6 4
15 14 12 13 18 22 25 25 27 27 27 27 27 27 32 41 26 26 22 25 25 22 25 24 25 25 41 34 39 33 36 33 29 28 25 25 22 21 16 16 16 13 12 10 9
14 13 12 13 16 17 23 24 26 27 27 26 26 27 34 35 26 27 24 23 24 22 25 25 22 24 26 28 30 28 31 37 34 32 29 25 30 25 20 17 17 16 14 12 11
11 11 10 11 15 16 21 25 26 27 27 25 25 26 35 26 26 29 27 25 22 23 22 22 25 22 22 21 25 31 32 38 39 33 32 27 30 22 20 20 19 17 15 14 12
8 8 9 10 13 17 17 23 26 26 25 24 24 26 33 21 31 29 27 28 25 24 24 22 23 24 19 24 31 33 34 40 45 35 33 31 33 32 22 22 23 20 17 16 13
5 7 8 9 13 15 15 20 24 24 21 21 23 25 28 28 25 29 28 27 27 23 24 23 25 31 28 30 31 27 31 32 33 32 34 35 35 30 25 26 25 23 19 16 14
5 7 8 9 12 12 13 15 21 22 23 25 23 27 22 21 22 28 29 29 30 29 31 27 34 40 37 31 29 27 29 30 27 27 36 39 41 37 35 30 29 26 22 18 15
7 7 9 10 11 12 12 15 20 20 25 25 24 26 22 21 26 28 26 34 36 42 32 31 35 32 28 29 29 29 30 26 22 23 27 41 45 40 36 33 29 27 23 20 14
10 9 10 11 11 11 11 14 15 19 24 24 24 24 23 22 25 27 28 32 36 42 40 38 30 25 25 24 33 31 32 32 30 20 23 26 40 41 37 33 28 25 24 19 17
12 12 11 12 12 13 12 14 13 17 24 25 25 23 23 21 26 21 25 30 32 41 38 40 31 28 29 25 25 34 25 23 21 21 27 24 35 38 38 35 31 27 25 21 15
15 15 14 13 14 12 15 13 12 16 27 21 23 18 21 24 20 23 19 28 35 34 34 35 37 34 29 29 24 24 23 20 23 26 22 23 28 29 24 29 27 26 25 22 20
18 18 16 14 14 15 13 12 11 19 26 22 20 24 24 25 21 18 23 23 25 34 34 35 29 35 37 27 27 20 19 19 24 25 32 30 29 31 27 27 22 19 19 20 20
21 20 17 14 15 15 15 13 14 21 19 21 22 23 26 26 25 21 28 30 31 35 37 36 35 30 31 33 29 31 28 36 36 34 37 26 31 34 22 23 22 19 20 19 17
22 19 17 16 15 15 15 13 14 19 22 19 20 22 27 25 28 24 27 33 28 27 32 35 40 34 31 35 33 33 32 35 42 42 37 26 37 29 25 23 16 13 13 12 13
20 18 16 12 12 15 13 10 17 18 18 19 19 23 27 27 25 26 27 34 32 29 26 30 31 26 26 28 27 31 34 27 30 27 32 32 31 30 23 20 15 11 10 10 8
17 16 16 14 12 14 13 10 15 16 18 18 23 21 25 26 28 28 27 25 27 28 24 23 29 26 25 24 27 27 21 31 33 40 40 34 35 31 24 21 16 12 8 6 5
15 15 15 16 15 14 13 15 14 13 17 21 23 23 24 23 28 27 27 23 25 25 24 23 23 24 24 29 31 29 30 28 27 30 34 37 32 25 25 20 16 12 7 4 4
15 15 15 13 12 13 13 13 14 15 14 17 20 22 22 22 26 29 29 26 21 21 29 23 23 25 26 23 25 29 31 29 34 29 32 29 32 21 19 14 9 8 8 7 5
15 14 14 13 13 13 11 15 15 15 12 16 17 20 21 23 26 28 25 21 21 24 25 24 26 27 25 26 24 27 28 28 27 28 31 33 32 23 21 16 12 10 9 7 7
15 16 14 13 12 11 12 15 15 12 12 17 18 18 21 23 25 23 27 21 21 20 20 22 26 28 29 25 21 29 25 25 25 32 30 32 31 24 21 17 14 13 11 9 7
14 14 14 14 13 14 13 12 15 13 12 18 19 18 19 22 23 28 24 24 22 20 19 22 31 27 25 21 21 23 24 24 31 30 31 28 31 30 22 16 13 10 9 9 8
13 13 14 13 14 14 14 16 15 14 15 13 19 19 19 20 19 23 25 25 25 25 21 20 26 24 26 23 23 24 22 23 26 27 33 35 36 24 17 12 11 9 10 10 9
12 12 13 13 13 13 12 16 17 16 14 12 14 16 16 17 17 19 22 25 23 23 22 21 21 24 29 25 26 33 29 24 24 23 25 30 29 19 16 14 12 10 11 11 9
Wind_Direction
355 348 342 333 322 306 301 298 292 287 280 274 271 267 269 273 271 267 254 260 258 262 256 251 251 251 247 250 258 257 242 241 248 245 253 262 260 263 264 273 267 277 280 291 99
351 348 341 335 325 311 299 299 295 287 284 273 271 266 265 271 264 260 270 272 262 259 259 246 241 245 246 240 250 244 240 246 253 254 255 264 262 268 265 270 272 277 298 7 101
341 340 337 334 325 309 296 293 293 289 283 276 271 268 263 265 257 259 265 266 270 260 261 252 241 237 240 244 240 244 239 253 251 257 259 263 265 267 266 269 276 271 290 315 136
344 339 342 338 321 304 295 292 289 287 284 279 271 271 265 253 247 260 263 259 263 267 257 254 234 237 238 236 241 240 245 250 253 258 258 260 266 267 263 275 278 275 287 320 176
348 347 347 342 330 305 297 293 287 285 283 278 272 271 258 246 249 262 264 258 253 259 252 248 241 236 238 238 239 243 244 250 252 256 258 262 261 266 267 268 273 282 287 284 268
358 358 359 351 337 309 299 295 286 284 281 278 272 270 253 242 253 254 269 253 251 254 248 246 249 249 240 238 235 241 245 247 250 252 257 258 261 265 268 278 272 275 278 277 271
1 2 4 2 351 329 306 299 286 283 279 277 272 264 249 242 255 254 255 258 249 255 250 247 250 249 240 229 237 242 247 247 248 248 253 262 254 256 266 276 274 272 276 279 273
1 9 14 8 357 345 317 293 282 280 277 276 273 263 248 257 259 249 248 248 252 252 255 251 248 253 251 238 241 240 248 250 247 247 250 254 250 253 263 269 272 275 276 277 275
7 20 20 13 0 346 335 299 282 277 276 275 268 258 247 265 246 246 247 245 248 251 253 250 247 243 245 232 239 242 248 250 246 244 246 248 249 252 262 267 269 274 276 277 275
26 38 31 15 0 356 348 320 291 275 273 273 269 257 256 250 251 245 246 244 241 242 244 242 244 237 237 231 234 240 247 259 253 243 245 247 248 253 260 264 269 271 274 276 275
67 56 36 22 3 9 360 350 286 266 259 254 260 256 264 267 260 246 242 240 239 242 239 242 238 237 239 242 254 254 252 257 261 252 246 245 247 253 257 261 264 270 271 271 274
85 60 36 18 22 21 9 344 297 278 257 257 263 255 264 265 250 245 242 234 233 232 241 239 244 245 251 246 250 251 249 254 265 264 255 248 246 251 257 259 265 266 270 269 268
90 67 46 29 36 26 14 349 353 294 258 255 255 256 258 262 253 243 236 236 236 233 237 239 243 248 243 245 243 246 250 251 258 269 261 264 248 251 257 259 262 267 270 272 267
85 74 57 47 38 13 13 347 357 306 253 249 249 256 255 261 252 256 244 238 238 232 236 239 242 247 241 248 248 242 256 261 265 260 260 260 252 253 256 255 259 265 267 267 269
87 80 75 73 36 34 356 351 350 297 245 255 250 270 256 246 259 248 254 239 234 234 234 236 239 240 246 244 250 255 254 249 258 258 267 260 259 259 264 254 255 265 264 264 268
90 90 80 80 63 40 29 14 8 270 248 251 256 246 243 244 254 254 241 246 245 236 240 241 249 242 241 247 244 246 254 263 262 264 260 258 260 264 264 266 267 267 271 265 269
96 100 136 129 110 78 91 68 312 271 268 253 251 247 240 239 245 250 232 231 231 230 234 236 241 247 245 242 248 244 250 252 255 254 257 267 260 262 271 279 274 268 269 269 270
95 91 81 104 96 114 115 60 333 286 259 266 257 250 239 241 241 244 237 231 235 239 231 233 237 239 244 243 246 242 245 249 250 253 260 264 258 270 277 280 283 279 277 274 273
88 79 94 187 156 91 92 65 341 286 268 258 256 244 240 241 245 240 241 235 236 236 237 233 239 244 249 247 246 244 246 255 258 267 261 262 270 276 279 281 280 277 275 274 275
75 76 81 220 138 105 84 61 359 304 274 261 247 252 242 240 238 237 240 244 238 236 247 246 240 247 248 248 248 252 247 250 256 255 258 266 269 271 273 270 273 271 269 267 269
70 61 45 308 58 89 65 53 82 108 291 262 256 252 251 247 241 239 243 250 244 239 242 249 250 244 244 243 242 246 250 254 261 263 262 264 271 281 274 270 269 267 264 257 255
63 51 45 87 82 98 81 135 175 128 58 282 268 258 257 255 246 240 241 246 248 243 239 248 252 247 248 255 256 254 251 252 253 262 264 272 271 292 293 282 277 261 267 260 258
53 57 53 117 69 82 137 202 185 190 71 293 276 265 264 258 249 244 246 253 251 243 241 240 248 245 250 255 259 255 251 256 261 267 265 267 274 290 287 282 277 268 264 251 262
57 51 67 96 105 92 92 197 246 120 56 244 292 286 266 258 252 254 245 252 248 253 250 246 249 250 251 258 257 252 256 253 259 260 266 267 275 285 287 281 274 270 260 251 252
55 60 69 67 90 88 91 345 200 134 220 276 288 287 272 260 256 250 248 247 250 256 248 251 245 253 262 267 267 262 257 255 255 261 267 277 278 282 284 278 271 265 247 241 245
61 64 72 76 102 90 112 184 176 187 199 154 251 276 279 266 270 255 251 247 248 247 248 255 253 252 255 265 269 267 266 262 264 266 266 271 277 291 292 285 273 255 235 235 241
56 45 78 80 95 96 136 191 201 190 204 236 218 258 283 285 293 282 267 258 257 246 248 254 256 248 254 266 270 265 265 265 268 273 270 273 282 289 282 278 265 245 226 224 227